N689C SUMU-SAEZ

Flight info

Callsign N689C
Flight time 0h 27m
Altitude 20000
Route DAGUS DCT UGIMI UGIMI6A
Aircraft C700/M-SBDGHM1RWXY/LB2

Departure

Time 2026-04-25 22:55
Airport Carrasco General Cesáreo L. Berisso International Airport (SUMU)

Arrival

Time 2026-04-25 23:23
Airport Ezeiza International Airport - Ministro Pistarini (SAEZ)
Time Latitude Longitude Altitude Speed Heading
2026-04-25 22:37 -34.83863 -56.02461 76 ft 0 kts
2026-04-25 22:44 -34.83870 -56.02461 70 ft 2 kts
2026-04-25 22:44 -34.83886 -56.02461 76 ft 2 kts
2026-04-25 22:44 -34.83905 -56.02461 65 ft 3 kts
2026-04-25 22:44 -34.83925 -56.02461 74 ft 3 kts
2026-04-25 22:45 -34.83945 -56.02466 71 ft 3 kts 60°
2026-04-25 22:45 -34.83946 -56.02477 69 ft 0 kts 91°
2026-04-25 22:46 -34.83947 -56.02471 71 ft 4 kts 91°
2026-04-25 22:46 -34.83947 -56.02392 76 ft 15 kts 90°
2026-04-25 22:46 -34.83942 -56.02275 76 ft 14 kts 71°
2026-04-25 22:46 -34.83861 -56.02246 71 ft 14 kts
2026-04-25 22:47 -34.83795 -56.02229 76 ft 15 kts 24°
2026-04-25 22:47 -34.83689 -56.02088 70 ft 24 kts 52°
2026-04-25 22:47 -34.83614 -56.01966 72 ft 19 kts 56°
2026-04-25 22:47 -34.83563 -56.01876 76 ft 20 kts 56°
2026-04-25 22:48 -34.83497 -56.01774 76 ft 14 kts 37°
2026-04-25 22:48 -34.83385 -56.01817 74 ft 13 kts 323°
2026-04-25 22:48 -34.83329 -56.01855 72 ft 15 kts 355°
2026-04-25 22:48 -34.83250 -56.01765 76 ft 18 kts 49°
2026-04-25 22:49 -34.83167 -56.01642 76 ft 20 kts 52°
2026-04-25 22:49 -34.83050 -56.01448 73 ft 23 kts 54°
2026-04-25 22:49 -34.82984 -56.01339 76 ft 24 kts 53°
2026-04-25 22:49 -34.82912 -56.01220 76 ft 16 kts 53°
2026-04-25 22:50 -34.82824 -56.01139 73 ft 13 kts
2026-04-25 22:50 -34.82821 -56.01139 74 ft 0 kts 359°
2026-04-25 22:53 -34.82820 -56.01139 76 ft 0 kts 359°
2026-04-25 22:53 -34.82789 -56.01140 72 ft 11 kts 360°
2026-04-25 22:53 -34.82713 -56.01222 76 ft 11 kts 252°
2026-04-25 22:54 -34.82744 -56.01286 76 ft 6 kts 233°
2026-04-25 22:54 -34.82766 -56.01323 72 ft 0 kts 233°
2026-04-25 22:55 -34.82905 -56.01549 69 ft 85 kts 233°
2026-04-25 22:55 -34.83444 -56.02440 106 ft 169 kts 231°
2026-04-25 22:55 -34.84207 -56.03647 759 ft 205 kts 230°
2026-04-25 22:55 -34.84963 -56.05418 1115 ft 259 kts 263°
2026-04-25 22:56 -34.84767 -56.07401 1876 ft 214 kts 286°
2026-04-25 22:56 -34.84506 -56.09004 2651 ft 172 kts 279°
2026-04-25 22:56 -34.84465 -56.10280 3359 ft 142 kts 264°
2026-04-25 22:56 -34.84682 -56.11577 4144 ft 171 kts 260°
2026-04-25 22:57 -34.84904 -56.13134 4974 ft 209 kts 261°
2026-04-25 22:57 -34.85237 -56.15032 5845 ft 248 kts 257°
2026-04-25 22:57 -34.85646 -56.17148 6717 ft 264 kts 257°
2026-04-25 22:57 -34.86054 -56.19372 7559 ft 272 kts 258°
2026-04-25 22:58 -34.86460 -56.21653 8486 ft 277 kts 259°
2026-04-25 22:58 -34.86874 -56.23962 9440 ft 281 kts 259°
2026-04-25 22:58 -34.87297 -56.26306 10419 ft 289 kts 259°
2026-04-25 22:58 -34.87739 -56.28769 11381 ft 302 kts 258°
2026-04-25 22:59 -34.88196 -56.31308 12370 ft 310 kts 258°
2026-04-25 22:59 -34.88649 -56.33899 13395 ft 314 kts 258°
2026-04-25 22:59 -34.89115 -56.36510 14351 ft 317 kts 258°
2026-04-25 22:59 -34.89583 -56.39104 15282 ft 319 kts 258°
2026-04-25 23:00 -34.90058 -56.41757 16258 ft 320 kts 259°
2026-04-25 23:00 -34.90533 -56.44427 17261 ft 323 kts 259°
2026-04-25 23:00 -34.91010 -56.47114 18299 ft 325 kts 259°
2026-04-25 23:00 -34.91486 -56.49784 19197 ft 328 kts 260°
2026-04-25 23:01 -34.91972 -56.52532 19950 ft 341 kts 260°
2026-04-25 23:01 -34.92497 -56.55514 19994 ft 375 kts 259°
2026-04-25 23:01 -34.93063 -56.58698 20001 ft 389 kts 259°
2026-04-25 23:01 -34.93643 -56.61953 20001 ft 394 kts 259°
2026-04-25 23:02 -34.94220 -56.65227 20002 ft 396 kts 259°
2026-04-25 23:02 -34.94794 -56.68492 20006 ft 396 kts 259°
2026-04-25 23:02 -34.95372 -56.71782 20001 ft 396 kts 259°
2026-04-25 23:02 -34.95950 -56.75070 20009 ft 396 kts 259°
2026-04-25 23:03 -34.96526 -56.78352 20005 ft 396 kts 259°
2026-04-25 23:03 -34.97094 -56.81604 20007 ft 396 kts 259°
2026-04-25 23:03 -34.97669 -56.84888 20006 ft 396 kts 259°
2026-04-25 23:03 -34.98166 -56.88193 20002 ft 395 kts 265°
2026-04-25 23:04 -34.98271 -56.91528 19996 ft 394 kts 271°
2026-04-25 23:04 -34.98245 -56.94868 19999 ft 394 kts 271°
2026-04-25 23:04 -34.98242 -56.98215 20000 ft 394 kts 271°
2026-04-25 23:04 -34.98231 -57.01565 19988 ft 395 kts 271°
2026-04-25 23:05 -34.98212 -57.04934 19996 ft 395 kts 271°
2026-04-25 23:05 -34.98195 -57.08264 19996 ft 395 kts 271°
2026-04-25 23:05 -34.98179 -57.11615 19994 ft 395 kts 271°
2026-04-25 23:05 -34.98167 -57.14971 20003 ft 395 kts 271°
2026-04-25 23:06 -34.98151 -57.18330 20001 ft 395 kts 271°
2026-04-25 23:06 -34.98133 -57.21679 20002 ft 395 kts 271°
2026-04-25 23:06 -34.98127 -57.24990 20007 ft 395 kts 271°
2026-04-25 23:06 -34.98146 -57.28332 20031 ft 387 kts 270°
2026-04-25 23:07 -34.98196 -57.31570 19612 ft 378 kts 269°
2026-04-25 23:07 -34.98274 -57.34769 18752 ft 371 kts 270°
2026-04-25 23:07 -34.98198 -57.37842 18461 ft 356 kts 274°
2026-04-25 23:07 -34.98014 -57.40869 18172 ft 360 kts 275°
2026-04-25 23:08 -34.97921 -57.43921 17842 ft 360 kts 271°
2026-04-25 23:08 -34.97977 -57.46973 17523 ft 360 kts 269°
2026-04-25 23:08 -34.97834 -57.50021 17190 ft 359 kts 278°
2026-04-25 23:08 -34.97322 -57.52956 16857 ft 359 kts 283°
2026-04-25 23:09 -34.96730 -57.55920 16448 ft 359 kts 282°
2026-04-25 23:09 -34.96256 -57.58909 16045 ft 357 kts 278°
2026-04-25 23:09 -34.95905 -57.61896 15647 ft 356 kts 278°
2026-04-25 23:09 -34.95505 -57.64873 15257 ft 355 kts 280°
2026-04-25 23:10 -34.95040 -57.67833 14869 ft 354 kts 280°
2026-04-25 23:10 -34.94605 -57.70782 14488 ft 353 kts 279°
2026-04-25 23:10 -34.94195 -57.73744 14112 ft 353 kts 279°
2026-04-25 23:10 -34.93779 -57.76654 13740 ft 352 kts 279°
2026-04-25 23:11 -34.93348 -57.79593 13323 ft 350 kts 279°
2026-04-25 23:11 -34.92925 -57.82510 12907 ft 348 kts 279°
2026-04-25 23:11 -34.92509 -57.85376 12495 ft 335 kts 279°
2026-04-25 23:11 -34.92115 -57.88096 12091 ft 317 kts 279°
2026-04-25 23:12 -34.91744 -57.90649 11683 ft 302 kts 279°
2026-04-25 23:12 -34.91380 -57.93124 11277 ft 291 kts 279°
2026-04-25 23:12 -34.91032 -57.95519 10876 ft 282 kts 279°
2026-04-25 23:12 -34.90691 -57.97848 10480 ft 277 kts 279°
2026-04-25 23:13 -34.90353 -58.00163 10084 ft 276 kts 279°
2026-04-25 23:13 -34.90011 -58.02468 9643 ft 277 kts 281°
2026-04-25 23:13 -34.89754 -58.04763 9116 ft 276 kts 268°
2026-04-25 23:13 -34.89974 -58.07054 8623 ft 275 kts 264°
2026-04-25 23:14 -34.90173 -58.09339 8120 ft 273 kts 265°
2026-04-25 23:14 -34.90367 -58.11657 7611 ft 271 kts 265°
2026-04-25 23:14 -34.90556 -58.13904 7126 ft 269 kts 265°
2026-04-25 23:14 -34.90751 -58.16171 6997 ft 260 kts 265°
2026-04-25 23:15 -34.90937 -58.18354 6903 ft 268 kts 265°
2026-04-25 23:15 -34.91103 -58.20622 6713 ft 269 kts 267°
2026-04-25 23:15 -34.91172 -58.22929 6518 ft 268 kts 269°
2026-04-25 23:15 -34.91204 -58.25193 6327 ft 267 kts 270°
2026-04-25 23:16 -34.91229 -58.27440 6128 ft 267 kts 270°
2026-04-25 23:16 -34.91254 -58.29702 5929 ft 267 kts 270°
2026-04-25 23:16 -34.91281 -58.31978 5727 ft 267 kts 270°
2026-04-25 23:16 -34.91307 -58.34217 5532 ft 267 kts 270°
2026-04-25 23:17 -34.91337 -58.36505 5336 ft 267 kts 270°
2026-04-25 23:17 -34.91308 -58.38737 5110 ft 267 kts 273°
2026-04-25 23:17 -34.91174 -58.40997 4863 ft 266 kts 278°
2026-04-25 23:17 -34.90864 -58.43221 4613 ft 265 kts 281°
2026-04-25 23:18 -34.90518 -58.45429 4361 ft 263 kts 282°
2026-04-25 23:18 -34.90183 -58.47544 4084 ft 245 kts 282°
2026-04-25 23:18 -34.89845 -58.49519 3795 ft 229 kts 284°
2026-04-25 23:18 -34.89517 -58.51313 3449 ft 206 kts 284°
2026-04-25 23:19 -34.89181 -58.52927 3066 ft 185 kts 287°
2026-04-25 23:19 -34.88859 -58.54354 2674 ft 164 kts 289°
2026-04-25 23:19 -34.88321 -58.55430 2284 ft 144 kts 310°
2026-04-25 23:19 -34.87751 -58.56407 2039 ft 140 kts 305°
2026-04-25 23:20 -34.87212 -58.57368 1838 ft 140 kts 306°
2026-04-25 23:20 -34.86595 -58.58282 1647 ft 139 kts 317°
2026-04-25 23:20 -34.85818 -58.58997 1423 ft 140 kts 328°
2026-04-25 23:20 -34.85093 -58.59440 1387 ft 140 kts 348°
2026-04-25 23:21 -34.84689 -58.59457 1383 ft 138 kts
2026-04-25 23:21 -34.83741 -58.59155 1158 ft 140 kts 19°
2026-04-25 23:21 -34.82899 -58.58645 911 ft 135 kts 32°
2026-04-25 23:21 -34.82228 -58.57939 582 ft 126 kts 46°
2026-04-25 23:22 -34.82122 -58.57783 539 ft 123 kts 51°
2026-04-25 23:22 -34.81789 -58.57024 395 ft 125 kts 70°
2026-04-25 23:22 -34.81799 -58.55930 211 ft 127 kts 105°
2026-04-25 23:23 -34.82098 -58.54297 65 ft 0 kts 101°
2026-04-25 23:23 -34.82108 -58.54242 67 ft 15 kts 102°
2026-04-25 23:23 -34.82129 -58.54117 67 ft 6 kts 102°
2026-04-25 23:23 -34.82136 -58.54071 67 ft 12 kts 97°
2026-04-25 23:24 -34.82127 -58.53921 62 ft 21 kts 62°
2026-04-25 23:24 -34.82023 -58.53777 64 ft 24 kts 45°
2026-04-25 23:24 -34.81924 -58.53667 67 ft 16 kts 29°
2026-04-25 23:24 -34.81814 -58.53682 67 ft 18 kts 334°
2026-04-25 23:25 -34.81694 -58.53755 67 ft 13 kts 332°
2026-04-25 23:25 -34.81611 -58.53740 67 ft 13 kts 40°
2026-04-25 23:25 -34.81528 -58.53662 64 ft 22 kts 27°
2026-04-25 23:25 -34.81406 -58.53601 64 ft 31 kts 12°
2026-04-25 23:26 -34.81083 -58.53554 63 ft 30 kts 347°
2026-04-25 23:26 -34.80844 -58.53644 67 ft 43 kts 345°
2026-04-25 23:26 -34.80627 -58.53720 64 ft 17 kts 343°
2026-04-25 23:26 -34.80440 -58.53717 66 ft 37 kts 17°
2026-04-25 23:27 -34.80253 -58.53536 66 ft 27 kts 45°
2026-04-25 23:27 -34.80219 -58.53521 64 ft 6 kts 324°
2026-04-25 23:27 -34.80190 -58.53557 67 ft 12 kts 313°
2026-04-25 23:27 -34.80157 -58.53549 67 ft 5 kts 52°
2026-04-25 23:28 -34.80160 -58.53538 65 ft 1 kts 135°
2026-04-25 23:28 -34.80164 -58.53538 66 ft 0 kts 172°